Regional Weather Roundup
Issued by NWS

Home | Current Version | Previous Version | Graphics & Text | Print | Product List | Glossary On
Versions: 1 2 3 4 5 6 7 8 9 10 11 12 13 14 15 16 17 18 19 20 21 22 23 24 25 26 27 28 29 30 31 32 33 34 35 36 37 38 39 40 41 42 43 44 45 46 47 48 49 50
000
ASUS43 KLOT 010812
RWRIL

ILLINOIS REGIONAL WEATHER ROUNDUP
NATIONAL WEATHER SERVICE CHICAGO/ROMEOVILLE IL
300 AM CDT SAT AUG 01 2015

NOTE: "FAIR" INDICATES FEW OR NO CLOUDS BELOW 12,000 FEET WITH NO
SIGNIFICANT WEATHER AND/OR OBSTRUCTIONS TO VISIBILITY.

* THESE STATIONS ARE NOT UNDER NWS QUALITY CONTROL. THEY ALSO MAY NOT
  REPORT WEATHER SUCH AS PRECIPITATION OR FOG.

ILZ001-002-007-009-015-016-024-010900-
NORTHWEST ILLINOIS

CITY           SKY/WX    TMP DP  RH WIND       PRES   REMARKS
MOLINE         CLEAR     61  57  87 S5        30.03F
STERLING*      CLEAR     63  57  82 W5        29.99F
SAVANNA*       CLEAR     64  58  81 CALM      30.02S
$$

ILZ003-004-008-010-011-017-018-010900-
NORTH CENTRAL ILLINOIS

CITY           SKY/WX    TMP DP  RH WIND       PRES   REMARKS
ROCKFORD       CLEAR     61  54  77 CALM      30.02F
FREEPORT*      CLEAR     59  55  85 W6        30.03F
ROCHELLE*      CLEAR     56  55  93 SW3       30.02F
DE KALB*       CLEAR     63  54  73 W7        30.02S
PERU*          CLEAR     64  57  79 W7        30.03S
$$

ILZ005-006-012>014-019>023-010900-
NORTHEAST ILLINOIS

CITY           SKY/WX    TMP DP  RH WIND       PRES   REMARKS
CHICAGO-OHARE  FAIR      67  53  61 W8        29.98F
CHICAGO-MIDWAY CLEAR     70  51  51 W5        29.98F
AURORA         CLEAR     58  53  84 CALM      30.01S
LANSING*       CLEAR     64  52  66 W5        29.99S
JOLIET*        CLEAR     62  56  82 CALM      30.00S
WAUKEGAN       CLEAR     64  53  67 VRB3      29.97F
DUPAGE AIRPORT CLEAR     62  53  72 CALM      29.99F
KANKAKEE*      CLEAR     62  59  91 W5        30.02R
WHEELING       CLEAR     66  51  58 W3        30.00S
MORRIS*        CLEAR     59  56  91 NW8       30.00S
ROMEOVILLE*    CLEAR     61  54  76 NW5       30.00S
NORTHERLY ISL    N/A     72  51  47 W12         N/A
$$

LMZ740>746-010900-
SOUTHERN LAKE MICHIGAN

STATION/POSITION SKY/WX   TEMP    WIND        PRES    VSBY  WAVE
                          AIR SEA DIR/SP/G                  HT/PER
                          (F)     (DEG/KT/KT) (MB)    (MI)  (FT/S)
HARRISON CRIB              73     300/ 13/ 14   N/A
BURNHAM HARBOR             72     280/  9/ 10   N/A
CALUMET HARBOR             71     260/  2/  5   N/A
BURNS HARBOR               75     300/ 12/ 15 1015.6S
MICHIGAN CITY              74     280/ 14/ 15   N/A
MICHIGAN CITY 6N           74 74  320/ 12/ 16   N/A           2/ 3
ST. JOSEPH                 73 74  330/ 12/ 14   N/A           3/ 4
$$

ILZ025>027-034>036-040-047-049-050-058-095>099-010900-
WEST-CENTRAL ILLINOIS

CITY           SKY/WX    TMP DP  RH WIND       PRES   REMARKS
QUINCY         MOCLDY    71  67  87 CALM      30.04F
GALESBURG*     CLEAR     60  58  93 CALM      30.04F
MACOMB*        CLEAR     63  60  90 NW5       30.06F
JACKSONVILLE*  PTCLDY    69  66  90 CALM      30.03F
PITTSFIELD*    PTCLDY    70  67  90 CALM      30.05F
$$

ILZ028>032-037-038-041>044-048-051>054-059>061-010900-
CENTRAL ILLINOIS

CITY           SKY/WX    TMP DP  RH WIND       PRES   REMARKS
PONTIAC        CLEAR     61  60  96 CALM      30.03S
BLOOMINGTON    CLEAR     67  59  75 W7        30.05S
DECATUR        CLEAR     69  58  67 N6        30.03F
PEORIA         CLEAR     67  60  78 CALM      30.04S
LACON*         CLEAR     65  58  76 N5        30.02S
LINCOLN*       CLEAR     67  60  77 CALM      30.03F
SPRINGFIELD    MOCLDY    68  65  90 N5        30.04S
TAYLORVILLE    CLEAR     66  64  94 CALM      30.03F
$$

ILZ033-039-045-046-055>057-062-063-010900-
EAST-CENTRAL ILLINOIS

CITY           SKY/WX    TMP DP  RH WIND       PRES   REMARKS
CHAMPAIGN      CLEAR     62  58  86 W3        30.03S
DANVILLE*      CLEAR     64  59  84 NW6       29.98F
RANTOUL*       CLEAR     64  60  87 NW6       30.02S
MATTOON        CLEAR     68  59  73 NW6       30.02F
PARIS*         CLEAR     62  59  91 CALM      30.02F
$$

ILZ079-100>102-010900-
SOUTHWEST ILLINOIS

CITY           SKY/WX    TMP DP  RH WIND       PRES   REMARKS
ALTON          CLEAR     68  67  96 N5        30.03S
BELLEVILLE     CLEAR     69  69  99 W2        30.01F
CAHOKIA*       CLEAR     69  66  90 CALM      30.02F
SPARTA*        CLEAR     72  67  83 CALM      30.04S
$$

ILZ064>066-069>071-074>076-080>082-084>086-088>090-092>094-010900-
SOUTH-CENTRAL ILLINOIS

CITY           SKY/WX    TMP DP  RH WIND       PRES   REMARKS
CARBONDALE     CLEAR     70  68  93 CALM      30.02F
CAIRO*         CLEAR     69  69  99 CALM      30.02F
EFFINGHAM*     CLEAR     69  65  86 CALM      30.03F
MARION         CLEAR     72  70  94 CALM      30.03S
MT. VERNON     PTCLDY    66  63  88 CALM      30.03S
CENTRALIA*     CLEAR     66  64  91 CALM      30.03S
SALEM*         CLEAR     68  65  91 CALM      30.03S
METROPOLIS*    CLEAR     70  70 100 CALM      30.03S FOG
$$

ILZ067-068-072-073-078-083-087-091-010900-
SOUTHEAST ILLINOIS

CITY           SKY/WX    TMP DP  RH WIND       PRES   REMARKS
LAWRENCEVILLE  CLEAR     71  68  90 NW6       30.01S
FLORA*         CLEAR     72  66  83 NW5       30.02S
FAIRFIELD*     PTCLDY    68  67  97 CALM      30.01S
HARRISBURG*    CLEAR     69  69 100 CALM      30.03F
ROBINSON*      PTCLDY    67  65  96 CALM      30.02F
CARMI*         CLEAR     70  64  83 CALM      30.01S
$$

ABBREVIATIONS USED IN REMARKS
   TC - TEMPERATURE IN CELSIUS
  WCI - WIND CHILL INDEX
   HX - HEAT INDEX
  VSB - VISIBILITY
$$




USA.gov is the U.S. government's official web portal to all federal, state and local government web resources and services.